{"data":{"norad_id":69622,"epoch":"2026-09-20T04:00:03.000096Z","epoch_age_seconds":57696,"freshness":"FRESH","line1":"1 69622U 26140AG  26263.16670139 -.00003281  00000+0 -81128-4 0  9999","line2":"2 69622  51.8807 299.1005 0008908 166.6735  79.5686 15.36008139  3348","mean_motion":15.36008139,"eccentricity":0.0008908,"inclination_deg":51.8807,"raan_deg":299.1005,"arg_perigee_deg":166.6735,"mean_anomaly_deg":79.5686,"bstar":-8.1128e-5,"rev_number":334,"period_min":93.749503237496,"perigee_km":451.83811641814,"apogee_km":464.01724925708,"semimajor_km":6836.0646828376,"source":"CELESTRAK","updated_at":"2026-09-20T09:00:25.030659Z"}}